Dayton Wright, OH

4:17 AM EDT on May 29, 2017 (GMT -0400)
Dayton-Wright Brothers

Weather History for KMGY - February, 2014

Change the Weather History Date:

Sunday, February 9, 2014

  Actual Average (KFFO) Record (KFFO)
Temperature  
Mean Temperature 21 °F -  
Max Temperature 26 °F 39 °F 68 °F (2001)
Min Temperature 15 °F 22 °F 3 °F (2007)
Degree Days  
Heating Degree Days 44    
Moisture  
Dew Point 20 °F    
Average Humidity 84    
Maximum Humidity 96    
Minimum Humidity 60    
Precipitation  
Precipitation 0.06 in - - ()
Sea Level Pressure  
Sea Level Pressure 30.10 in    
Wind  
Wind Speed 6 mph (West)    
Max Wind Speed 16 mph    
Max Gust Speed 23 mph    
Visibility 5 miles    
Events Fog , Snow    
Averages and records for this station are not official NWS values.
T = Trace of Precipitation, MM = Missing Value Source: NWS Daily Summary

Daily Weather History Graph

Daily Weather History Graph

Search for Another Location

Airport or City:

Trip Planner

Search our weather history database for the weather conditions in past years. The results will help you decide how hot, cold, wet, or windy it might be!

Date:

Astronomy

Feb. 09, 2014 Rise Set
Actual Time 7:36 AM EST 6:06 PM EST
Civil Twilight 7:08 AM EST 6:34 PM EST
Nautical Twilight 6:36 AM EST 7:06 PM EST
Astronomical Twilight 6:05 AM EST 7:37 PM EST
Moon 1:46 PM EST (2/9) 3:40 AM EST (2/9)
Length of Visible Light 11h 26m
Length of Day
10h 30m
Waxing Gibbous, 77% of the Moon is Illuminated
Feb 9
Waxing Gibbous
Feb 14
Full
Feb 22
Last Quarter
Mar 1
New
Mar 8
First Quarter

Hourly Weather History & Observations

Time (EST) Temp. Windchill Dew Point Humidity Pressure Visibility Wind Dir Wind Speed Gust Speed Precip Events Conditions
12:53 AM 24.1 °F 18.2 °F 19.9 °F 84% 30.15 in 10.0 mi South 4.6 mph - N/A   Overcast
1:28 AM 24.1 °F 17.0 °F 21.0 °F 88% 30.10 in 10.0 mi South 5.8 mph - N/A   Overcast
1:53 AM 24.1 °F 19.7 °F 21.0 °F 88% 30.13 in 10.0 mi South 3.5 mph - N/A   Overcast
2:11 AM 24.1 °F 18.2 °F 21.0 °F 88% 30.09 in 9.0 mi South 4.6 mph - N/A   Overcast
2:38 AM 24.1 °F 19.7 °F 21.0 °F 88% 30.08 in 9.0 mi South 3.5 mph - N/A   Overcast
2:53 AM 24.1 °F - 21.9 °F 91% 30.12 in 9.0 mi Calm Calm - N/A   Overcast
3:21 AM 25.0 °F 20.7 °F 21.0 °F 85% 30.08 in 8.0 mi South 3.5 mph - N/A   Overcast
3:35 AM 25.0 °F 19.3 °F 21.9 °F 88% 30.07 in 7.0 mi South 4.6 mph - N/A   Overcast
3:53 AM 25.0 °F 19.3 °F 21.9 °F 88% 30.11 in 5.0 mi South 4.6 mph - N/A   Overcast
4:33 AM 25.0 °F 20.7 °F 23.0 °F 92% 30.08 in 2.5 mi WSW 3.5 mph - N/A   Overcast
4:53 AM 25.0 °F 19.3 °F 24.1 °F 96% 30.12 in 1.8 mi SW 4.6 mph - N/A   Overcast
5:33 AM 26.1 °F 20.5 °F 25.0 °F 96% 30.06 in 2.0 mi SW 4.6 mph - N/A   Overcast
5:53 AM 26.1 °F 19.4 °F 25.0 °F 96% 30.10 in 2.5 mi SW 5.8 mph - N/A   Overcast
6:02 AM 26.1 °F 18.4 °F 25.0 °F 96% 30.06 in 3.0 mi WSW 6.9 mph - N/A   Overcast
6:21 AM 26.1 °F 19.4 °F 24.1 °F 92% 30.06 in 4.0 mi WSW 5.8 mph - N/A   Overcast
6:41 AM 26.1 °F - 25.0 °F 96% 30.04 in 4.0 mi Calm Calm - N/A   Overcast
6:53 AM 26.1 °F - 24.1 °F 92% 30.07 in 4.0 mi Calm Calm - N/A   Overcast
7:53 AM 26.1 °F 19.4 °F 24.1 °F 92% 30.07 in 4.0 mi SW 5.8 mph - N/A   Overcast
7:58 AM 26.1 °F 20.5 °F 24.1 °F 92% 30.03 in 1.8 mi SSW 4.6 mph - 0.00 in Snow Light Snow
8:14 AM 26.1 °F 19.4 °F 24.1 °F 92% 30.04 in 0.8 mi WSW 5.8 mph - 0.01 in Snow Light Snow
8:30 AM 26.1 °F 19.4 °F 24.1 °F 92% 30.04 in 0.5 mi WSW 5.8 mph - 0.02 in Fog , Snow Light Snow
8:37 AM 26.1 °F 19.4 °F 24.1 °F 92% 30.04 in 0.5 mi WSW 5.8 mph - 0.03 in Fog , Snow Light Snow
8:44 AM 26.1 °F 18.4 °F 24.1 °F 92% 30.04 in 0.8 mi West 6.9 mph - 0.03 in Snow Light Snow
8:53 AM 26.1 °F 18.4 °F 24.1 °F 92% 30.08 in 0.8 mi WSW 6.9 mph - 0.03 in Snow Light Snow
9:03 AM 26.1 °F 18.4 °F 25.0 °F 96% 30.05 in 0.5 mi West 6.9 mph - 0.01 in Fog , Snow Light Snow
9:14 AM 26.1 °F 19.4 °F 24.1 °F 92% 30.05 in 0.8 mi West 5.8 mph - 0.01 in Snow Light Snow
9:34 AM 26.1 °F 17.6 °F 24.1 °F 92% 30.04 in 0.5 mi West 8.1 mph - 0.02 in Fog , Snow Light Snow
9:53 AM 26.1 °F 17.6 °F 24.1 °F 92% 30.09 in 0.5 mi West 8.1 mph - 0.02 in Fog , Snow Snow
9:58 AM 26.1 °F 17.6 °F 23.0 °F 88% 30.05 in 0.8 mi West 8.1 mph - 0.00 in Snow Light Snow
10:09 AM 26.1 °F 16.8 °F 23.0 °F 88% 30.05 in 0.8 mi West 9.2 mph - 0.01 in Snow Light Snow
10:28 AM 25.0 °F 14.2 °F 23.0 °F 92% 30.06 in 0.5 mi West 11.5 mph - 0.01 in Fog , Snow Snow
10:40 AM 25.0 °F 13.6 °F 23.0 °F 92% 30.07 in 0.8 mi WNW 12.7 mph - 0.01 in Snow Light Snow
10:51 AM 24.8 °F 14.0 °F 21.2 °F 86% 30.07 in 1.2 mi WNW 11.5 mph - 0.01 in Snow Light Snow
10:53 AM 25.0 °F 14.2 °F 21.9 °F 88% 30.11 in 1.2 mi WNW 11.5 mph - 0.01 in Snow Light Snow
11:04 AM 25.0 °F 14.8 °F 21.0 °F 85% 30.07 in 3.0 mi West 10.4 mph - 0.00 in Snow Light Snow
11:15 AM 25.0 °F 16.3 °F 19.9 °F 81% 30.06 in 6.0 mi WNW 8.1 mph - 0.00 in   Haze
11:23 AM 25.0 °F 15.5 °F 19.9 °F 81% 30.06 in 1.8 mi West 9.2 mph - 0.00 in Snow Light Snow
11:37 AM 25.0 °F 16.3 °F 21.0 °F 85% 30.06 in 2.5 mi West 8.1 mph - 0.00 in Snow Light Snow
11:48 AM 24.8 °F 16.1 °F 21.2 °F 86% 30.06 in 1.2 mi West 8.1 mph - 0.00 in Snow Light Snow
11:53 AM 25.0 °F 15.5 °F 21.0 °F 85% 30.09 in 1.5 mi WNW 9.2 mph - 0.00 in Snow Light Snow
11:57 AM 25.0 °F 17.1 °F 21.0 °F 85% 30.06 in 2.0 mi WNW 6.9 mph - 0.00 in Snow Light Snow
12:08 PM 25.0 °F 16.3 °F 19.9 °F 81% 30.06 in 3.0 mi West 8.1 mph - 0.00 in Snow Light Snow
12:53 PM 25.0 °F 13.1 °F 18.0 °F 75% 30.09 in 8.0 mi WNW 13.8 mph - 0.00 in   Overcast
1:53 PM 25.0 °F 13.1 °F 16.0 °F 69% 30.09 in 9.0 mi WNW 13.8 mph - N/A   Overcast
2:53 PM 25.0 °F 12.2 °F 15.1 °F 66% 30.10 in 8.0 mi WNW 16.1 mph 23.0 mph N/A   Overcast
3:53 PM 24.1 °F 13.7 °F 14.0 °F 65% 30.11 in 10.0 mi WNW 10.4 mph - N/A   Overcast
4:20 PM 24.1 °F 13.7 °F 12.0 °F 60% 30.07 in 10.0 mi WNW 10.4 mph - N/A   Scattered Clouds
4:53 PM 23.0 °F 13.1 °F 12.0 °F 63% 30.14 in 10.0 mi WNW 9.2 mph - N/A   Clear
5:53 PM 21.9 °F 11.7 °F 12.0 °F 66% 30.19 in 10.0 mi West 9.2 mph - N/A   Clear
6:53 PM 21.9 °F 12.5 °F 12.0 °F 66% 30.21 in 10.0 mi West 8.1 mph - N/A   Partly Cloudy
7:53 PM 21.0 °F 13.4 °F 12.0 °F 68% 30.22 in 10.0 mi WNW 5.8 mph - N/A   Overcast
8:53 PM 19.9 °F 9.3 °F 10.9 °F 68% 30.23 in 10.0 mi NNW 9.2 mph - N/A   Scattered Clouds
9:53 PM 18.0 °F 7.7 °F 9.0 °F 68% 30.25 in 9.0 mi NW 8.1 mph - N/A   Overcast
10:53 PM 16.0 °F 6.3 °F 9.0 °F 74% 30.25 in 9.0 mi NNW 6.9 mph - N/A   Partly Cloudy
11:53 PM 15.1 °F 2.5 °F 8.1 °F 74% 30.26 in 10.0 mi NNW 10.4 mph - N/A   Clear